Albuquerque, NM

6:03 PM MDT on May 22, 2018 (GMT -0600)
Albuquerque International Sunport

Weather History for KABQ - February, 2013

Change the Weather History Date:

Thursday, February 28, 2013

  Actual Average Record
Temperature  
Mean Temperature 40 °F 45 °F  
Max Temperature 52 °F 56 °F 76 °F (1904)
Min Temperature 27 °F 33 °F 9 °F (1962)
Degree Days  
Heating Degree Days 25 20  
Month to date heating degree days 720 661  
Since 1 July heating degree days 3198 3303  
Cooling Degree Days 0 0  
Month to date cooling degree days 0 0  
Year to date cooling degree days 0 0  
Moisture  
Dew Point 2 °F    
Average Humidity 23    
Maximum Humidity 37    
Minimum Humidity 9    
Precipitation  
Precipitation 0.00 in 0.02 in 0.80 in (1993)
Month to date precipitation 0.24 0.48  
Year to date precipitation 0.35 0.86  
Snow  
Snow 0.00 in - - ()
Month to date snowfall 2.8  
Since 1 July snowfall 3.5  
Snow Depth 0.00 in    
Sea Level Pressure  
Sea Level Pressure 30.28 in    
Wind  
Wind Speed 8 mph (North)    
Max Wind Speed 22 mph    
Max Gust Speed 29 mph    
Visibility 10 miles    
Events      
T = Trace of Precipitation, MM = Missing Value Source: NWS Daily Summary

Daily Weather History Graph

Daily Weather History Graph

Search for Another Location

Airport or City:

Astronomy

Feb. 28, 2013 Rise Set
Actual Time 6:36 AM MST 6:01 PM MST
Civil Twilight 6:11 AM MST 6:26 PM MST
Nautical Twilight 5:41 AM MST 6:56 PM MST
Astronomical Twilight 5:12 AM MST 7:25 PM MST
Moon 9:21 PM MST (2/28) 7:57 AM MST (2/28)
Length of Visible Light 12h 15m
Length of Day
11h 24m
Waning Gibbous, 90% of the Moon is Illuminated
Feb 28
Waning Gibbous
Mar 4
Last Quarter
Mar 11
New
Mar 19
First Quarter
Mar 27
Full

Hourly Weather History & Observations

Time (MST) Temp. Windchill Dew Point Humidity Pressure Visibility Wind Dir Wind Speed Gust Speed Precip Events Conditions
12:52 AM 30.9 °F 26.2 °F -0.0 °F 27% 30.28 in 10.0 mi North 4.6 mph - N/A   Clear
1:52 AM 30.0 °F 22.4 °F 1.9 °F 30% 30.27 in 10.0 mi North 8.1 mph - N/A   Clear
2:52 AM 30.0 °F 21.7 °F 3.0 °F 32% 30.25 in 10.0 mi North 9.2 mph - N/A   Clear
3:52 AM 30.0 °F 21.7 °F 3.0 °F 32% 30.25 in 10.0 mi North 9.2 mph - N/A   Clear
4:52 AM 28.9 °F 19.8 °F 3.0 °F 33% 30.27 in 10.0 mi North 10.4 mph - N/A   Clear
5:52 AM 28.0 °F 19.3 °F 3.0 °F 34% 30.30 in 10.0 mi North 9.2 mph - N/A   Clear
6:52 AM 27.0 °F 18.7 °F 3.9 °F 37% 30.34 in 10.0 mi North 8.1 mph - N/A   Clear
7:52 AM 30.0 °F 21.7 °F 5.0 °F 35% 30.37 in 10.0 mi North 9.2 mph - N/A   Clear
8:52 AM 33.1 °F 23.9 °F 6.1 °F 32% 30.36 in 10.0 mi NNW 12.7 mph - N/A   Clear
9:52 AM 37.0 °F 31.0 °F 6.1 °F 28% 30.35 in 10.0 mi North 8.1 mph - N/A   Clear
10:52 AM 39.0 °F 34.0 °F 5.0 °F 24% 30.34 in 10.0 mi NNW 6.9 mph - N/A   Clear
11:52 AM 42.1 °F 39.2 °F 6.1 °F 23% 30.31 in 10.0 mi Variable 4.6 mph - N/A   Clear
12:52 PM 45.0 °F 41.8 °F 5.0 °F 19% 30.29 in 10.0 mi Variable 5.8 mph - N/A   Clear
1:52 PM 46.9 °F - 3.9 °F 17% 30.24 in 10.0 mi South 3.5 mph - N/A   Clear
2:52 PM 50.0 °F - -0.9 °F 12% 30.22 in 10.0 mi ENE 4.6 mph - N/A   Clear
3:52 PM 52.0 °F - -2.9 °F 10% 30.20 in 10.0 mi Variable 4.6 mph - N/A   Partly Cloudy
4:52 PM 52.0 °F - -5.1 °F 9% 30.20 in 10.0 mi NNW 15.0 mph 23.0 mph N/A   Partly Cloudy
5:52 PM 48.0 °F - -2.0 °F 13% 30.25 in 10.0 mi NW 18.4 mph - N/A   Partly Cloudy
6:52 PM 46.0 °F 42.5 °F -0.9 °F 14% 30.26 in 10.0 mi NW 6.9 mph - N/A   Partly Cloudy
7:52 PM 44.1 °F 39.0 °F -0.0 °F 16% 30.28 in 10.0 mi NNW 9.2 mph - N/A   Partly Cloudy
8:52 PM 43.0 °F 38.8 °F -2.9 °F 15% 30.29 in 10.0 mi NNW 6.9 mph - N/A   Mostly Cloudy
9:52 PM 41.0 °F 35.8 °F 1.0 °F 19% 30.30 in 10.0 mi NNW 8.1 mph - N/A   Scattered Clouds
10:52 PM 39.9 °F 34.5 °F 3.9 °F 22% 30.30 in 10.0 mi NNW 8.1 mph - N/A   Partly Cloudy
11:52 PM 37.9 °F 34.4 °F 5.0 °F 25% 30.30 in 10.0 mi North 4.6 mph - N/A   Partly Cloudy